Content
SEND FEEDBACK

Daily
Averages
Monthly
Summary
United States of America

ALBIA, IOWA


Home > North America > United States > Iowa
Elevation: 904 feet     Latitude: 41 04N     Longitude: 092 46W

WEATHER
 
SELECT A DAY
Number of Records: 215,253;   Date Range: 5/3/05 - 7/29/14
 
SHARE

PRINT THIS DATA

[ ← Previous Day ]
WEATHER ALMANAC - FEBRUARY 13, 2013
[ Next Day → ]
[ °C ]   °F
Weather ElementAverageHighLow
Temperature34.8 °F48.4 °F (3:55 pm)24.8 °F (7:15 am)
Dewpoint26.7 °F32 °F (4:55 pm)21.9 °F (7:15 am)
Humidity73.3 %89 % (6:15 am)47 % (3:55 pm)
Barometer29.78 in29.87 in (12:35 am)29.69 in (10:35 pm)
Wind Speed7.7 mph11.5 mph (3:15 pm)
Weather ElementAverage
Visibility10 mi
Wind DirectionWSW (248.7 °)

Weather ElementTotal
Precipitation---
Heating Degree Days28.4 (Base 65)
Averaged from 68 records on February 13, 2013
WEATHER CONDITIONS BREAKOUT
WIND DIRECTION BREAKOUT
WEATHER BY HOUR - FEBRUARY 13, 2013
[ °C ]   °F
Local TimeTemperatureDewpointHumidityBarometerVisibilityWind DirectionWind SpeedGust SpeedPrecipitationEventsConditions
12:35 AM31.1 °F25.3 °F79 %29.87 in10.0 miSW (220°)8.1 mphClear
12:55 AM30.6 °F24.8 °F79 %29.87 in10.0 miWSW (240°)6.9 mphClear
1:15 AM30.2 °F24.8 °F80 %29.86 in10.0 miWSW (250°)6.9 mphClear
1:35 AM30.0 °F24.8 °F81 %29.85 in10.0 miSW (230°)10.4 mphClear
1:55 AM30.2 °F24.4 °F79 %29.85 in10.0 miWSW (240°)9.2 mphClear
2:15 AM30.0 °F24.4 °F80 %29.85 in10.0 miWSW (240°)8.1 mphClear
2:35 AM29.7 °F24.1 °F80 %29.84 in10.0 miWSW (250°)5.8 mphClear
2:55 AM28.9 °F23.9 °F81 %29.83 in10.0 miWSW (240°)6.9 mphClear
3:15 AM28.2 °F23.7 °F83 %29.83 in10.0 miWest (260°)6.9 mphClear
3:35 AM27.5 °F23.5 °F85 %29.83 in10.0 miWest (280°)9.2 mphClear
3:55 AM28.0 °F23.7 °F84 %29.82 in10.0 miWest (280°)8.1 mphClear
4:15 AM27.5 °F23.4 °F84 %29.82 in10.0 miWest (270°)6.9 mphClear
4:35 AM26.6 °F23.0 °F86 %29.82 in10.0 miWSW (250°)4.6 mphClear
4:55 AM26.1 °F23.0 °F88 %29.81 in10.0 miWest (260°)3.5 mphClear
5:15 AM25.7 °F22.5 °F88 %29.82 in10.0 miWest (280°)4.6 mphClear
5:35 AM25.3 °F22.3 °F88 %29.81 in10.0 miWSW (250°)4.6 mphClear
5:55 AM25.5 °F22.5 °F88 %29.82 in10.0 miWest (270°)3.5 mphClear
6:15 AM25.7 °F23.0 °F89 %29.81 in10.0 miWSW (250°)6.9 mphClear
6:35 AM25.7 °F22.6 °F88 %29.81 in10.0 miWest (260°)4.6 mphClear
6:55 AM25.5 °F22.5 °F88 %29.81 in10.0 miWest (260°)5.8 mphClear
7:15 AM24.8 °F21.9 °F89 %29.81 in10.0 miWest (260°)4.6 mphClear
7:35 AM25.7 °F22.8 °F89 %29.81 in10.0 miWest (260°)4.6 mphClear
7:55 AM26.8 °F23.5 °F88 %29.81 in10.0 miWest (260°)5.8 mphClear
8:15 AM28.0 °F24.4 °F86 %29.82 in10.0 miWest (280°)6.9 mphClear
8:35 AM29.1 °F24.8 °F84 %29.81 in10.0 miWest (280°)6.9 mphClear
8:55 AM29.8 °F25.5 °F84 %29.82 in10.0 miWNW (290°)8.1 mphClear
9:15 AM30.7 °F25.7 °F82 %29.82 in10.0 miWNW (290°)8.1 mphClear
9:35 AM31.1 °F25.3 °F79 %29.82 in10.0 miWNW (290°)6.9 mphClear
9:55 AM32.0 °F26.2 °F79 %29.82 in10.0 miWest (280°)6.9 mphClear
10:55 AM34.3 °F27.5 °F76 %29.82 in10.0 miWNW (290°)10.4 mphClear
11:15 AM35.6 °F28.2 °F75 %29.83 in10.0 miWNW (290°)9.2 mphClear
11:35 AM36.5 °F28.6 °F73 %29.82 in10.0 miWest (260°)8.1 mphClear
11:55 AM38.1 °F28.8 °F69 %29.82 in10.0 miWest (280°)9.2 mphClear
12:15 PM38.3 °F28.6 °F68 %29.80 in10.0 miWest (280°)8.1 mphClear
12:35 PM39.9 °F29.5 °F66 %29.80 in10.0 miWest (270°)10.4 mphClear
12:55 PM41.0 °F28.0 °F60 %29.79 in10.0 miWest (260°)6.9 mphClear
1:15 PM42.1 °F29.5 °F61 %29.78 in10.0 miWSW (250°)8.1 mphClear
1:35 PM43.3 °F28.9 °F57 %29.77 in10.0 miWest (260°)8.1 mphClear
1:55 PM44.6 °F30.0 °F57 %29.77 in10.0 miWSW (240°)8.1 mphClear
2:15 PM45.5 °F29.7 °F54 %29.76 in10.0 miWest (260°)10.4 mphClear
2:35 PM46.4 °F29.1 °F51 %29.76 in10.0 miWest (260°)8.1 mphClear
2:55 PM47.5 °F31.1 °F53 %29.76 in10.0 miWest (280°)9.2 mphClear
3:15 PM47.7 °F30.0 °F50 %29.75 in10.0 miWest (260°)11.5 mphClear
3:55 PM48.4 °F29.1 °F47 %29.75 in10.0 miWSW (240°)10.4 mphClear
4:15 PM48.2 °F30.4 °F50 %29.75 in10.0 miWest (270°)8.1 mphClear
4:35 PM47.5 °F31.1 °F53 %29.74 in10.0 miWest (270°)6.9 mphClear
4:55 PM46.6 °F32.0 °F57 %29.74 in10.0 miWest (260°)4.6 mphClear
5:15 PM43.7 °F32.0 °F63 %29.74 in10.0 miWSW (240°)5.8 mphClear
5:35 PM41.9 °F31.3 °F66 %29.74 in10.0 miSW (230°)6.9 mphClear
5:55 PM39.4 °F29.8 °F69 %29.74 in10.0 miSW (230°)9.2 mphClear
6:15 PM38.3 °F28.6 °F68 %29.74 in10.0 miWSW (240°)8.1 mphClear
6:35 PM36.9 °F27.9 °F70 %29.74 in10.0 miSW (230°)6.9 mphClear
6:55 PM37.2 °F27.3 °F67 %29.74 in10.0 miSW (220°)6.9 mphMostly Cloudy
7:15 PM36.1 °F27.1 °F70 %29.74 in10.0 miSW (220°)8.1 mphMostly Cloudy
7:35 PM35.6 °F27.1 °F71 %29.74 in10.0 miSW (220°)5.8 mphScattered Clouds
7:55 PM34.9 °F27.3 °F74 %29.73 in10.0 miSSW (210°)8.1 mphScattered Clouds
8:15 PM35.6 °F27.5 °F72 %29.73 in10.0 miSSW (210°)9.2 mphScattered Clouds
8:35 PM36.0 °F27.5 °F71 %29.72 in10.0 miSSW (210°)8.1 mphMostly Cloudy
8:55 PM36.3 °F27.5 °F70 %29.72 in10.0 miSSW (200°)10.4 mphOvercast
9:15 PM36.5 °F27.5 °F70 %29.71 in10.0 miSSW (200°)8.1 mphOvercast
9:35 PM36.5 °F27.7 °F70 %29.71 in10.0 miSSW (200°)9.2 mphOvercast
9:55 PM35.4 °F28.0 °F75 %29.70 in10.0 miSouth (190°)6.9 mphMostly Cloudy
10:15 PM35.6 °F28.0 °F74 %29.70 in10.0 miSouth (190°)9.2 mphMostly Cloudy
10:35 PM36.0 °F27.9 °F72 %29.69 in10.0 miSSW (200°)9.2 mphOvercast
10:55 PM36.7 °F27.5 °F69 %29.69 in10.0 miSSW (210°)9.2 mphOvercast
11:15 PM36.9 °F27.5 °F69 %29.69 in10.0 miSW (220°)10.4 mphOvercast
11:35 PM36.9 °F27.5 °F69 %29.70 in10.0 miWSW (240°)11.5 mphScattered Clouds
11:55 PM37.2 °F27.5 °F68 %29.70 in10.0 miWSW (250°)10.4 mphClear
Hourly data recorded from KOOA, located miles away from Albia, Iowa







STORIES FROM OUR PARTNERS